sat.trackr.live / text

‹ back to catalog

STARLINK-35842

NORAD 67087 · 2025-298N

PAYLOAD ACTIVE UNKNOWN

§ Identity

Operator
Country
US
Launch date
2025-12-14
Launch site
AFWTR
Launch vehicle
Mass (kg)
RCS (m²)

Purposes: comms

External: N2YO · Heavens-Above · Gunter

§ Orbital elements

Epoch: 2026-05-25T03:55:30.925632Z

Period
96.11 min
Inclination
70.0012°
Eccentricity
0.0004167
Mean motion
14.98326972 rev/d
Perigee alt
569.2 km
Apogee alt
575.0 km
Semi-major
6,950.2 km
B*
-5.9093e-5
RAAN
181.6031°
Arg perigee
268.9517°
Mean anomaly
91.1164°
Rev number
2,467

§ Raw data

STARLINK-358421 67087U 25298N   26145.16355238 -.00000798  00000+0 -59093-4 0  99902 67087  70.0012 181.6031 0004167 268.9517  91.1164 14.98326972 24678

JSON: /api/v1/satellites/67087 · /tle

For live sub-satellite position, see the globe view (requires WebGL).

§ Visibility from observer

Set your observer location to see the next 7 days of passes ≥ 10°. The values pass through the URL so the page stays shareable.

No JS? Fill the form by hand. The geolocation button needs JavaScript.